Regional Weather Roundup
Issued by NWS

Home | Current Version | Previous Version | Graphics & Text | Print | Product List | Glossary On
Versions: 1 2 3 4 5 6 7 8 9 10 11 12 13 14 15 16 17 18 19 20 21 22 23 24 25 26 27 28 29 30 31 32 33 34 35 36 37 38 39 40 41 42 43 44 45 46 47 48 49 50
000
ASUS43 KMPX 012301
RWRMN
WEATHER ROUNDUP FOR MINNESOTA
NATIONAL WEATHER SERVICE TWIN CITIES/CHANHASSEN MN
600 PM CDT WED APR 01 2015


NOTE: "FAIR" INDICATES FEW OR NO CLOUDS BELOW 12,000 FEET WITH NO
SIGNIFICANT WEATHER AND/OR OBSTRUCTIONS TO VISIBILITY. N/A MEANS
CURRENT SKY AND/OR WEATHER CONDITIONS ARE NOT AVAILABLE.

MNZ060>063-068>070-020000-
   Twin Cities Metro

CITY           SKY/WX    TMP DP  RH WIND       PRES   REMARKS
TWIN CITIES    PTSUNNY   80  35  19 S20G33    29.45F
ST PAUL        MOSUNNY   80  35  19 S30G40    29.46F
CRYSTAL        PTSUNNY   81  37  20 S15G33    29.43F
BLAINE         PTSUNNY   81  36  19 S25G38    29.44F
LAKEVILLE      MOSUNNY   75  39  27 S22G29    29.49F
EDEN PRAIRIE   PTSUNNY   80  38  22 S21G37    29.44F
SOUTH ST PAUL  MOSUNNY   80  35  20 S21G30    29.47F
LAKE ELMO      FAIR      77  37  24 S25G38    29.49F
$$
MNZ001>005-007-008-013>017-022>024-027-028-020000-
   Northwest Minnesota

CITY           SKY/WX    TMP DP  RH WIND       PRES   REMARKS
BEMIDJI        CLOUDY    68  39  34 SW13G20   29.36S
HALLOCK        CLOUDY    55  41  58 NW14G25   29.40R
ROSEAU         PTSUNNY   61  45  55 W13G21    29.35R
WARROAD        CLOUDY    63  46  55 W17G24    29.33S
THIEF RVR FALL PTSUNNY   61  41  48 W18G25    29.40R
CROOKSTON      MOSUNNY   61  43  51 NW32G44   29.43R
FOSSTON        MOSUNNY   63  37  39 W18G28    29.41R
DETROIT LAKES  PTSUNNY   63  37  39 W24G31    29.47R
MOORHEAD       MOSUNNY   66  39  37 NW22G29   29.48R
PARK RAPIDS    CLOUDY    68  36  30 SW20G29   29.40R
MAHNOMEN       FAIR      64  40  40 NW22G32   29.41R
$$
MNZ006-009>011-018-025>026-020000-
   North Central Minnesota

CITY           SKY/WX    TMP DP  RH WIND       PRES   REMARKS
BAUDETTE       CLOUDY    63  41  44 SE5       29.31F
FLAG ISLAND    CLOUDY    46  34  61 CALM      29.32S
INTL FALLS     PTSUNNY   61  36  39 SE10      29.36F
WASKISH        CLOUDY    68  41  37 CALM      29.34F
BIG FORK       CLOUDY    64  37  36 S12       29.38R
LONGVILLE      CLOUDY    68  43  40 SW10G20   29.39S
GRAND RAPIDS   CLOUDY    63  39  42 CALM      29.41R
ORR            CLOUDY    57  32  38 SE8G20    29.38S
COOK           CLOUDY    55  36  47 S9G18     29.41F
WALKER         FAIR      67  38  34 W20G31    29.38R
$$
MNZ012-019>021-037-020000-
   Northeast Minnesota

CITY           SKY/WX    TMP DP  RH WIND       PRES   REMARKS
DULUTH         CLOUDY    40  31  70 SE16      29.48F
ELY            CLOUDY    48  32  53 SE7       29.46F
EVELETH        CLOUDY    52  34  50 S7        29.45F
DULUTH HARBOR  CLOUDY    36  34  93 NE12      29.52F
TWO HARBORS    CLOUDY    46  36  66 E9        29.46F
SILVER BAY     CLOUDY    41  32  70 N7        29.49F
GRAND MARAIS     N/A     40  31  70 NE12      29.57F
G MARAIS ARPRT CLOUDY    37  27  65 NE7       29.56F
$$
MNZ029>031-032-039>041-046>048-054>057-064-020000-
   West Central Minnesota

CITY           SKY/WX    TMP DP  RH WIND       PRES   REMARKS
FERGUS FALLS   CLOUDY    66  36  32 NW23G29   29.48R
WHEATON        CLOUDY    64  41  42 W17G25    29.52R
MORRIS         CLOUDY    63  43  48 W18G24    29.50R
ALEXANDRIA     CLOUDY    63  36  36 W15       29.46S
ELBOW LAKE     FAIR      64  41  42 NW23G29   29.48R
WADENA         CLOUDY    64  37  36 W13G22    29.43R
GLENWOOD       CLOUDY    64  37  36 W20       29.48R
APPLETON       CLOUDY    66  37  34 NW15      29.49R
BENSON         CLOUDY    64  36  34 NW12      29.50R
ORTONVILLE     CLOUDY    64  39  39 NW13      29.52R
MADISON        CLOUDY    68  37  32 NW16G23   29.51R
WILLMAR          N/A     70  39  32 W17G25    29.48R
$$
MNZ033>034-036-042>043-049>051-058-059-020000-
   Central Minnesota

CITY           SKY/WX    TMP DP  RH WIND       PRES   REMARKS
ST CLOUD       LGT RAIN  64  54  69 W8G21     29.42F
SAUK CENTRE    FAIR      68  43  40 W16G29    29.44S
PAYNESVILLE    CLOUDY    70  43  37 SW24      29.46R
AITKIN         CLOUDY    73  43  33 S8        29.37F
PINE RIVER     CLOUDY    70  45  40 SW10G24   29.44S
BRAINERD       CLOUDY    70  43  37 W13       29.40F
STAPLES        CLOUDY    66  36  32 W15G29    29.43S
LONG PRAIRIE   FAIR      66  41  39 SW15G22   29.44S
LITTLE FALLS   CLOUDY    73  41  31 W9G20     29.42F
LITCHFIELD     TSTM      75  45  33 W17G28    29.44S
MAPLE LAKE     CLOUDY    80  46  31 SW20G38   29.43S
$$
MNZ037-044-045-052-053-020000-
   East Central Minnesota

CITY           SKY/WX    TMP DP  RH WIND       PRES   REMARKS
PRINCETON      CLOUDY    61  55  82 CALM      29.41F
MORA           CLOUDY    66  45  45 S9        29.45F
CAMBRIDGE      LGT RAIN  72  50  46 NE3G16    29.41F
RUSH CITY      TSTM      64  46  53 N13       29.48R
MOOSE LAKE     CLOUDY    72  45  37 SW9G20    29.42S
HINCKLEY       FAIR      70  46  43 S20G36    29.46S
CLOQUET        PTSUNNY   41  34  75 E8        29.47S
MCGREGOR       CLOUDY    70  43  37 S12       29.41F
$$
MNZ071>073-080-081-089-090-097-098-020000-
   Southwest Minnesota

CITY           SKY/WX    TMP DP  RH WIND       PRES   REMARKS
MONTEVIDEO     CLOUDY    70  36  28 N15G23    29.50R
GRANITE FALLS  CLOUDY    71  35  27 W24       29.50R
CANBY          CLOUDY    69  37  30 NW22G28   29.51R
MARSHALL       CLOUDY    73  34  23 NW22G28   29.50R
REDWOOD FALLS  CLOUDY    82  43  25 SW23G32   29.44S
OLIVIA         CLOUDY    73  45  35 NW26G36   29.45R
PIPESTONE      CLOUDY    70  32  24 NW17G25   29.52R
WINDOM         PTSUNNY   81  41  24 S24G33    29.48S
WORTHINGTON    PTSUNNY   79  43  27 S20G30    29.50S
JACKSON        MOSUNNY   81  37  21 S23G32    29.52S
TRACY          PTSUNNY   77  38  25 W10G22    29.48R
SLAYTON        RAIN      72  33  24 W21       29.52R
$$
MNZ065>067-074>077-082>085-091>093-020000-
   South Central Minnesota

CITY           SKY/WX    TMP DP  RH WIND       PRES   REMARKS
MANKATO        PTSUNNY   81  39  22 S23G31    29.49F
NEW ULM        CLOUDY    81  37  21 SW22G32   29.47R
FAIRMONT       PTSUNNY   81  41  24 S33G39    29.50F
GLENCOE        CLOUDY    78  47  34 S14G21    29.45S
FARIBAULT      PTSUNNY   79  39  24 S18G29    29.53F
OWATONNA       PTSUNNY   75  36  23 S16G23    29.55F
WASECA         PTSUNNY   77  39  25 S23G32    29.54F
ALBERT LEA     PTSUNNY   79  34  19 S15G24    29.56F
$$
MNZ078>079-086>088-094>096-020000-
   Southeast Minnesota

CITY           SKY/WX    TMP DP  RH WIND       PRES   REMARKS
ROCHESTER      PTSUNNY   72  41  32 S24G36    29.60F
RED WING       MOSUNNY   79  34  19 S13G28    29.53F
STANTON        MOSUNNY   76  39  26 S16G24    29.51F
DODGE CENTER   PTSUNNY   72  39  30 S21G26    29.59S
WINONA         PTSUNNY   77  32  19 S6G24     29.61F
AUSTIN         PTSUNNY   75  37  25 S23G29    29.59F
PRESTON        PTSUNNY   74  35  23 S21G38    29.62F
$$
ABBREVIATIONS USED IN REMARKS
   TC - TEMPERATURES IN CELSIUS
  WCI - WIND CHILL INDEX
   HX - HEAT INDEX
  VSB - VISIBILITY
$$


USA.gov is the U.S. government's official web portal to all federal, state and local government web resources and services.